Location: Prague
(50.0830°N, 14.4670°E)
Time: 09:15:36
(UTC+02:00)

RS-15 - Pass Details

Date: 06 April 2023
Orbit: 1885 x 2159 km, 64.8° (Epoch: 29 May)

Event Time Altitude Azimuth Distance (km) Brightness Sun altitude
Rises 21:10:41 0° 300° (WNW) 5,681 12.5 -14.2°
Reaches altitude 10° 21:14:31 10° 307° (NW) 4,661 11.4 -14.7°
Maximum altitude 21:26:06 45° 19° (NNE) 2,666 8.8 -16.3°
Enters shadow 21:36:32 12° 89° (E) 4,307 9.4 -17.7°
